Voltar ao catálogo

STARLINK-31097

AtivoComunicaçõesVLEO
NORAD 58718·PAYLOAD·🇺🇸 United States

Lançado Jan 3, 2024 de Vandenberg Space Force Base

Loading…

Próximas Passagens (próximas 24 horas)

TLE

AtualizadoSource: CelesTrak SupGP

Época: Sep 15, 2026, 03:22 UTC

1 58718C 24002P   26258.14076389 -.00031847  00000+0 -94112-3 0  2580
2 58718  53.1584  68.5793 0001105  86.3462 161.3900 15.34400452    10

Acompanhe STARLINK-31097 em tempo real com AllMySat

Download on the App Store